Date String (YYYY-MM-DD hh:mm:ss) UTC,Instrument flags,Ambient pressure (hPa),Sample flow (lpm),Bypass flow (lpm),Sample temperature (°C),Ambient temperature (°C),ASC tube jacket temperature (°C),LED temperature (°C),Box temperature (°C),Sample RH (%),Span deviation,Mass concentration (μg/m³),Mass concentration (μg/m³),Mass concentration (μg/m³)
DateTimeUTC,F1_M11,P_M11,Q1_M11,Q2_M11,T1_M11,T2_M11,T3_M11,T4_M11,T5_M11,U1_M11,ZSPAN_M11,X0_M11,X2_M11,X1_M11
2021-12-31 19:00:00,,0810.3,4.99,0.00,20.6,20.4,00.0,29.9,22.1,19.4,0003.7,0010.49,0005.45,0004.67
2021-12-31 19:01:00,,0810.4,5.00,0.00,20.8,21.5,00.0,29.9,22.5,19.2,0003.1,0010.74,0005.72,0004.94
2021-12-31 19:02:00,,0810.3,5.00,0.00,21.0,22.4,00.0,30.0,22.9,19.0,0003.1,0011.14,0006.02,0005.23
2021-12-31 19:03:00,,0810.3,5.00,0.00,21.1,22.3,00.0,30.0,23.0,19.0,0003.4,0011.77,0006.35,0005.53
2021-12-31 19:04:00,,0810.3,4.99,0.00,21.1,21.9,00.0,30.0,22.8,19.1,0003.7,0012.57,0006.84,0005.93
2021-12-31 19:05:00,,0810.3,5.00,0.00,21.0,21.5,00.0,30.0,22.6,19.1,0003.3,0012.90,0007.09,0006.17
2021-12-31 19:06:00,,0810.3,5.00,0.00,21.0,21.0,00.0,30.0,22.4,19.1,0002.8,0013.00,0007.31,0006.39
2021-12-31 19:07:00,,0810.2,5.00,0.00,20.9,20.7,00.0,30.0,22.3,19.3,0002.8,0013.40,0007.58,0006.61
2021-12-31 19:08:00,,0810.2,4.99,0.00,20.8,20.4,00.0,30.0,22.2,19.4,0002.8,0013.56,0007.76,0006.77
2021-12-31 19:09:00,,0810.2,5.01,0.00,20.7,20.1,00.0,29.9,22.0,19.5,0002.6,0013.87,0007.83,0006.86
2021-12-31 19:10:00,,0810.2,5.00,0.00,20.6,19.9,00.0,29.9,21.9,19.5,0002.6,0014.42,0007.88,0006.91
2021-12-31 19:11:00,,0810.2,5.00,0.00,20.5,19.8,00.0,29.9,21.8,19.6,0003.0,0014.22,0007.87,0006.93
2021-12-31 19:12:00,,0810.2,5.00,0.00,20.6,20.6,00.0,29.9,22.1,19.5,0004.0,0014.22,0007.84,0006.91
2021-12-31 19:13:00,,0810.2,4.99,0.00,20.8,21.7,00.0,29.9,22.6,19.3,0004.3,0014.09,0007.81,0006.89
2021-12-31 19:14:00,,0810.2,5.00,0.00,21.0,22.5,00.0,30.0,22.9,19.2,0003.9,0013.98,0007.82,0006.89
2021-12-31 19:15:00,,0810.1,5.02,0.00,21.1,22.1,00.0,30.0,22.9,19.1,0003.4,0013.91,0007.79,0006.85
2021-12-31 19:16:00,,0810.1,5.00,0.00,21.1,21.7,00.0,30.0,22.7,19.1,0003.8,0013.90,0007.94,0006.98
2021-12-31 19:17:00,,0810.1,4.98,0.00,21.0,21.2,00.0,30.0,22.6,19.1,0004.0,0013.95,0008.11,0007.12
2021-12-31 19:18:00,,0810.1,4.99,0.00,21.0,20.8,00.0,30.0,22.4,19.1,0004.0,0014.14,0008.22,0007.21
2021-12-31 19:19:00,,0810.1,5.02,0.00,20.9,20.6,00.0,30.0,22.3,19.1,0003.6,0014.23,0008.30,0007.28
2021-12-31 19:20:00,,0810.1,4.99,0.00,20.8,20.4,00.0,30.0,22.3,19.2,0003.4,0014.00,0008.39,0007.39
2021-12-31 19:21:00,,0809.9,5.00,0.00,20.8,20.3,00.0,30.0,22.3,19.2,0003.4,0014.42,0008.59,0007.56
2021-12-31 19:22:00,,0809.9,5.02,0.00,20.8,20.2,00.0,29.9,22.2,19.2,0003.1,0014.79,0008.68,0007.64
2021-12-31 19:23:00,,0809.9,4.99,0.00,20.7,20.1,00.0,29.9,22.2,19.2,0002.7,0014.90,0008.80,0007.74
2021-12-31 19:24:00,,0809.9,5.00,0.00,20.7,20.0,00.0,29.9,22.1,19.3,0002.7,0015.22,0008.93,0007.87
2021-12-31 19:25:00,,0809.9,5.01,0.00,20.7,19.9,00.0,29.9,22.1,19.5,0002.8,0015.74,0009.04,0007.97
2021-12-31 19:26:00,,0810.0,5.00,0.00,20.7,20.3,00.0,29.9,22.2,19.5,0002.7,0015.64,0009.02,0008.00
2021-12-31 19:27:00,,0810.1,5.00,0.00,20.8,21.5,00.0,29.9,22.6,19.3,0002.9,0015.63,0009.05,0008.02
2021-12-31 19:28:00,,0810.1,5.01,0.00,21.0,22.6,00.0,30.0,23.0,19.0,0002.8,0015.65,0009.04,0008.00
2021-12-31 19:29:00,,0810.1,5.00,0.00,21.2,22.6,00.0,30.0,23.1,18.9,0002.9,0015.67,0009.08,0008.02
2021-12-31 19:30:00,,0810.0,5.01,0.00,21.2,22.2,00.0,30.0,23.1,18.9,0003.3,0015.65,0009.12,0008.10
2021-12-31 19:31:00,,0809.9,5.00,0.00,21.2,21.9,00.0,30.1,23.0,18.7,0003.7,0015.63,0009.11,0008.07
2021-12-31 19:32:00,,0809.9,4.99,0.00,21.2,21.6,00.0,30.1,22.9,18.9,0003.7,0014.94,0009.02,0008.00
2021-12-31 19:33:00,,0809.9,5.01,0.00,21.2,21.2,00.0,30.1,22.8,19.0,0003.7,0015.46,0009.20,0008.16
2021-12-31 19:34:00,,0809.9,4.99,0.00,21.1,21.0,00.0,30.1,22.7,18.9,0003.5,0015.74,0009.31,0008.25
2021-12-31 19:35:00,,0809.9,5.01,0.00,21.1,20.8,00.0,30.1,22.6,18.8,0002.9,0015.46,0009.21,0008.13
2021-12-31 19:36:00,,0809.9,5.00,0.00,21.0,20.7,00.0,30.1,22.6,18.7,0002.9,0014.62,0008.90,0007.87
2021-12-31 19:37:00,,0809.9,4.99,0.00,21.0,20.6,00.0,30.1,22.5,18.7,0003.2,0014.15,0008.46,0007.49
2021-12-31 19:38:00,,0809.9,5.02,0.00,21.0,20.5,00.0,30.1,22.5,18.6,0003.2,0013.74,0007.91,0007.01
2021-12-31 19:39:00,,0809.9,4.99,0.00,20.9,20.4,00.0,30.1,22.4,18.5,0003.2,0012.96,0007.35,0006.51
2021-12-31 19:40:00,,0809.9,4.99,0.00,20.9,20.3,00.0,30.0,22.4,18.5,0002.7,0012.13,0006.76,0006.00
2021-12-31 19:41:00,,0809.9,5.00,0.00,20.8,20.3,00.0,30.0,22.3,18.3,0001.8,0011.43,0006.21,0005.51
2021-12-31 19:42:00,,0809.9,5.00,0.00,20.8,20.2,00.0,30.0,22.2,18.4,0001.4,0010.68,0005.72,0005.11
2021-12-31 19:43:00,,0810.0,5.01,0.00,20.8,20.4,00.0,30.0,22.3,18.5,0000.8,0010.06,0005.22,0004.65
2021-12-31 19:44:00,,0809.9,4.99,0.00,20.9,21.4,00.0,30.0,22.7,18.3,0000.6,0008.51,0004.54,0004.06
2021-12-31 19:45:00,,0809.9,5.01,0.00,21.1,22.4,00.0,30.1,23.1,17.8,0000.0,0007.48,0003.88,0003.47
2021-12-31 19:46:00,,0809.9,5.00,0.00,21.3,22.4,00.0,30.1,23.1,17.4,0000.0,0006.46,0003.39,0002.98
2021-12-31 19:47:00,,0809.9,5.00,0.00,21.2,21.9,00.0,30.1,22.9,17.5,0000.0,0006.08,0002.99,0002.45
2021-12-31 19:48:00,,0810.0,5.00,0.00,21.1,21.5,00.0,30.1,22.7,17.7,0000.0,0006.52,0002.71,0002.16
2021-12-31 19:49:00,,0810.0,5.01,0.00,21.0,21.1,00.0,30.1,22.5,17.9,0000.0,0005.63,0002.58,0002.05
2021-12-31 19:50:00,,0809.9,5.00,0.00,21.0,20.7,00.0,30.1,22.3,18.1,0000.0,0005.78,0002.55,0002.03
2021-12-31 19:51:00,,0809.8,4.99,0.00,20.9,20.5,00.0,30.1,22.2,18.1,0000.0,0006.90,0002.59,0002.02
2021-12-31 19:52:00,,0809.8,5.01,0.00,20.8,20.2,00.0,30.0,22.1,18.1,0000.0,0006.85,0002.59,0002.02
2021-12-31 19:53:00,,0809.8,5.00,0.00,20.7,20.0,00.0,30.0,22.0,18.2,0000.0,0006.89,0002.60,0002.02
2021-12-31 19:54:00,,0809.8,4.99,0.00,20.7,20.5,00.0,30.0,22.2,18.2,0000.0,0006.79,0002.57,0002.01
2021-12-31 19:55:00,,0809.8,5.01,0.00,20.9,21.6,00.0,30.0,22.6,18.1,0000.0,0006.82,0002.58,0002.02
2021-12-31 19:56:00,,0809.8,4.98,0.00,21.1,22.5,00.0,30.1,23.0,17.9,0000.0,0006.73,0002.54,0002.00
2021-12-31 19:57:00,,0809.7,5.02,0.00,21.2,22.7,00.0,30.1,23.2,17.8,0000.0,0006.66,0002.52,0001.99
2021-12-31 19:58:00,,0809.7,4.99,0.00,21.2,22.2,00.0,30.2,23.0,17.8,0000.0,0006.12,0002.52,0001.98
2021-12-31 19:59:00,,0809.7,5.01,0.00,21.1,21.6,00.0,30.2,22.7,17.7,0000.0,0005.07,0002.51,0001.96
